User: anonymous   Login
Location: Oshawa
(43.9000°N, 78.8670°W)
Time: 19:16:56
(UTC-04:00)
Language:

CARTOSAT-1 - Orbit

View from above orbital plane
View from above orbital plane
View from above satellite
View from above satellite

Ground track
Ground track

The orbit data is extracted from the following two-line orbital elements,

1 28649U 05017A   15115.42703906  .00002154  00000-0  26823-3 0  9992
2 28649 097.7978 187.9062 0002524 077.0485 283.1611 14.83494039539784
Epoch (UTC): 25 April 2015 10:14:56
Eccentricity: 0.0002524
inclination: 97.7978°
perigee height: 616 km
apogee height: 620 km
right ascension of ascending node: 187.9062°
argument of perigee: 77.0485°
revolutions per day: 14.83494039
mean anomaly at epoch: 283.1611°
orbit number at epoch: 53978

The dashed part of the orbit path shows where the satellite is in the earth's shadow,  

DLR